[[{"header":{"parameterUnit":"m.s-1","parameterCategory":1,"la1":30.2991,"la2":30.254,"lo1":-89.0895,"lo2":-89.0444,"dy":0.0017,"dx":0.0017,"nx":28,"ny":28,"refTime":"2025-03-31T09:00:00:Z","depth":0,"parameterNumber":2,"parameterNumberName":"U-component_of_WINDS"},"data":[0,0,0,0,0,0,0,0,0,0,0,0,0,0,0,0,0,0,0,0,0,0,0,0,0,0,0,0,0,0,0,0,0,0,0,0,0,0,0,0,0,0,0,0,0,0,0,0,0,0,0,0,0,0,0,0,0,0,-3.3803,-3.3804,0,-3.3893,-3.3894,-3.3895,-3.39,-3.3899,-3.3897,-3.3896,-3.3991,-3.3994,-3.3998,0,0,0,0,0,0,0,0,0,0,0,0,0,-3.3634,-3.3637,-3.3802,-3.3804,-3.3805,-3.3893,-3.3895,-3.3896,-3.39,-3.3899,-3.3897,-3.3896,-3.399,-3.3994,-3.3998,0,0,0,0,0,0,0,0,0,0,0,0,0,-3.3715,-3.3638,-3.3802,-3.3817,-3.382,-3.3893,-3.3895,-3.3896,-3.39,-3.3898,-3.3897,-3.3895,-3.3988,-3.3993,-3.3999,-3.4063,0,0,-3.4015,-3.4017,0,0,0,0,0,0,0,0,-3.371,-3.3721,-3.3814,-3.3816,-3.3819,-3.3884,-3.387,-3.3952,-3.3901,-3.387,-3.3896,-3.3895,-3.3957,-3.3964,-3.3985,-3.4068,-3.4072,-3.4015,-3.4018,-3.4021,-3.4022,0,0,0,0,0,0,0,-3.3704,-3.3717,-3.3838,-3.3815,-3.3819,-3.382,-3.383,-3.3885,-3.3921,-3.3872,-3.3873,-3.3883,-3.3958,-3.398,-3.3987,-3.4073,-3.4015,-3.402,-3.4023,-3.4025,-3.4214,-3.4216,0,0,0,0,0,0,-3.3696,-3.3712,-3.3836,-3.3841,-3.3759,-3.3825,-3.3835,-3.3865,-3.392,-3.3927,-3.3885,-3.3883,-3.3972,-3.3981,-3.3991,-3.407,-3.4021,-3.4026,-3.4029,-3.4212,-3.4214,-3.4217,0,0,0,0,0,0,-3.3692,-3.3707,-3.3832,-3.3777,-3.3793,-3.3829,-3.3862,-3.3867,-3.3889,-3.393,-3.3936,-3.3901,-3.3971,-3.3983,-3.4045,-3.4073,-3.4028,-3.4033,-3.421,-3.4213,-3.4216,-3.4228,0,0,0,0,0,0,-3.3687,-3.3705,-3.373,-3.3777,-3.3796,-3.3884,-3.3864,-3.387,-3.3898,-3.3897,-3.3947,-3.3953,-3.397,-3.4037,-3.405,-3.4079,-3.4037,-3.4208,-3.4211,-3.4215,-3.4225,-3.4231,-3.4236,0,0,0,0,0,-3.3681,-3.373,-3.3731,-3.3746,-3.3827,-3.3886,-3.3897,-3.3915,-3.39,-3.3926,-3.3952,-3.3952,-3.4068,-3.4044,-3.4058,-3.4089,-3.4206,-3.421,-3.4214,-3.4223,-3.423,-3.4236,0,0,0,0,0,0,-3.3685,-3.3736,-3.3738,-3.3804,-3.384,-3.3887,-3.3919,-3.3922,-3.3964,-3.3961,-3.3983,-3.3994,-3.4055,-3.4079,-3.4051,-3.4155,-3.4135,-3.4143,-3.4137,-3.4144,-3.4149,-3.4141,-3.4041,0,0,0,0,0,-3.3693,-3.3736,-3.378,-3.3833,-3.3852,-3.3882,-3.3909,-3.392,-3.3959,-3.3974,-3.4005,-3.4043,-3.4089,-3.4118,-3.4162,-3.423,-3.424,-3.4258,-3.4264,-3.4268,-3.4273,-3.431,-3.4319,-3.423,-3.423,-3.423,0,0,-3.3711,-3.3745,-3.3771,-3.3835,-3.3865,-3.3909,-3.3895,-3.3943,-3.3976,-3.3982,-3.4042,-3.4066,-3.411,-3.4175,-3.4206,-3.4197,-3.43,-3.4273,-3.4276,-3.4279,-3.4316,-3.4324,-3.4331,-3.4233,-3.4233,-3.4232,0,0,-3.3766,-3.3796,-3.3844,-3.3874,-3.3919,-3.3939,-3.3951,-3.3997,-3.4013,-3.4074,-3.4079,-3.4119,-3.4197,-3.4228,-3.4254,-3.4322,-3.4323,-3.4336,-3.4363,-3.4399,-3.4406,-3.4412,-3.4435,-3.4444,-3.4342,-3.4342,-3.4342,0,-3.3783,-3.3849,-3.3868,-3.3916,-3.3944,-3.3951,-3.4,-3.4029,-3.4086,-3.4106,-3.4095,-3.4193,-3.4223,-3.4295,-3.4312,-3.4333,-3.4347,-3.433,-3.4403,-3.441,-3.4416,-3.4438,-3.4447,-3.4343,-3.4343,-3.4343,-3.4343,0,-3.3867,-3.3913,-3.3947,-3.4001,-3.4033,-3.4081,-3.4108,-3.4139,-3.4148,-3.4169,-3.4231,-3.4268,-3.4319,-3.4338,-3.4347,-3.4412,-3.4404,-3.4399,-3.4379,-3.4425,-3.4447,-3.4455,-3.4345,-3.4344,-3.4344,-3.4344,0,0,-3.3926,-3.399,-3.4002,-3.4027,-3.4078,-3.4114,-3.4163,-3.4213,-3.4238,-3.4278,-3.4319,-3.4385,-3.438,-3.441,-3.4423,-3.4455,-3.4505,-3.4445,-3.4447,-3.4454,-3.4578,-3.4581,-3.4591,-3.4507,-3.4509,-3.4511,-3.4574,0,-3.3985,-3.4071,-3.409,-3.4164,-3.4206,-3.4215,-3.4257,-3.4293,-3.4315,-3.4355,-3.438,-3.4425,-3.4416,-3.4434,-3.4466,-3.4492,-3.453,-3.4488,-3.4546,-3.4547,-3.4532,-3.4602,-3.4606,-3.4664,-3.4583,-3.4584,-3.4585,0,-3.4066,-3.4106,-3.4184,-3.423,-3.4248,-3.4286,-3.4333,-3.4372,-3.4413,-3.4427,-3.446,-3.447,-3.4522,-3.4501,-3.4572,-3.4543,-3.4568,-3.4585,-3.4588,-3.4592,-3.4568,-3.4608,-3.4683,-3.4691,-3.4599,-3.4598,-3.4597,0,-3.4099,-3.4174,-3.423,-3.4251,-3.4306,-3.4332,-3.4356,-3.4396,-3.4425,-3.4467,-3.4485,-3.4533,-3.4559,-3.4596,-3.4619,-3.4602,-3.4688,-3.4669,-3.47,-3.47,-3.4717,-3.4715,-3.4795,-3.4735,-3.4735,-3.4735,-3.4735,0,-3.4163,-3.421,-3.4246,-3.428,-3.4333,-3.4355,-3.4408,-3.4432,-3.4468,-3.4507,-3.4518,-3.4555,-3.4584,-3.4625,-3.4644,-3.47,-3.4712,-3.4724,-3.4728,-3.4722,-3.472,-3.4737,-3.4734,-3.4737,-3.4737,-3.4736,-3.4736,0,-3.4208,-3.4234,-3.4296,-3.4342,-3.4355,-3.4392,-3.4432,-3.4466,-3.4489,-3.4539,-3.4552,-3.4587,-3.4637,-3.4663,-3.4725,-3.4738,-3.48,-3.4803,-3.4785,-3.4787,-3.4816,-3.4812,-3.4909,-3.4923,-3.4855,-3.4855,-3.4856,0,-3.4246,-3.4282,-3.4333,-3.436,-3.4384,-3.4428,-3.4457,-3.4481,-3.4511,-3.4561,-3.4589,-3.4639,-3.468,-3.4758,-3.479,-3.4837,-3.4841,-3.4871,-3.4848,-3.484,-3.484,-3.4836,-3.484,-3.4875,-3.4875,-3.4876,-3.4876,0,-3.4311,-3.4322,-3.4363,-3.441,-3.4444,-3.4482,-3.4519,-3.4541,-3.4571,-3.4605,-3.4655,-3.4687,-3.475,-3.4799,-3.4849,-3.4875,-3.488,-3.4884,-3.4893,-3.4887,-3.4875,-3.488,-3.4795,-3.4881,-3.488,-3.488,-3.488,-3.488,-3.4353,-3.4385,-3.4426,-3.4472,-3.4502,-3.4537,-3.4571,-3.4598,-3.464,-3.4692,-3.4704,-3.4757,-3.4798,-3.4866,-3.4893,-3.4935,-3.4929,-3.4943,-3.4947,-3.4949,-3.495,-3.4869,-3.4945,-3.4945,-3.4945,-3.4945,-3.4944,0,-3.4417,-3.4444,-3.4486,-3.4537,-3.4573,-3.4576,-3.4618,-3.4648,-3.4694,-3.4732,-3.4772,-3.4829,-3.4877,-3.4913,-3.4962,-3.4989,-3.4993,-3.5001,-3.4998,-3.5004,-3.4953,-3.4939,-3.4997,-3.4997,-3.4997,-3.4997,-3.4997,-3.4997,-3.4455,-3.4509,-3.4525,-3.4596,-3.4622,-3.4673,-3.4697,-3.4729,-3.4759,-3.4823,-3.4863,-3.4885,-3.4922,-3.4974,-3.5019,-3.5028,-3.5045,-3.5053,-3.5062,-3.5013,-3.5008,-3.5002,-3.4989,-3.5057,-3.5057,-3.511,-3.511,-3.511]},{"header":{"parameterUnit":"m.s-1","parameterCategory":1,"la1":30.2991,"la2":30.254,"lo1":-89.0895,"lo2":-89.0444,"dy":0.0017,"dx":0.0017,"nx":28,"ny":28,"refTime":"2025-03-31T09:00:00:Z","depth":0,"parameterNumber":3,"parameterNumberName":"V-component_of_WINDS"},"data":[0,0,0,0,0,0,0,0,0,0,0,0,0,0,0,0,0,0,0,0,0,0,0,0,0,0,0,0,0,0,0,0,0,0,0,0,0,0,0,0,0,0,0,0,0,0,0,0,0,0,0,0,0,0,0,0,0,0,4.9466,4.9466,0,4.9464,4.9464,4.9464,4.94,4.9398,4.9397,4.9395,4.9393,4.9394,4.9396,0,0,0,0,0,0,0,0,0,0,0,0,0,4.9414,4.9415,4.9466,4.9466,4.9466,4.9464,4.9464,4.9464,4.94,4.9398,4.9396,4.9394,4.9393,4.9394,4.9396,0,0,0,0,0,0,0,0,0,0,0,0,0,4.9427,4.9416,4.9466,4.9434,4.9431,4.9464,4.9464,4.9464,4.9401,4.9398,4.9396,4.9393,4.9392,4.9394,4.9396,4.946,0,0,4.9403,4.9404,0,0,0,0,0,0,0,0,4.9426,4.9429,4.9439,4.9436,4.9433,4.943,4.9445,4.9463,4.9401,4.9412,4.9395,4.9392,4.9407,4.9408,4.9413,4.946,4.946,4.9403,4.9405,4.9406,4.9406,0,0,0,0,0,0,0,4.9426,4.9429,4.9465,4.9439,4.9435,4.942,4.9419,4.9448,4.9424,4.9411,4.9406,4.9407,4.9405,4.9411,4.9413,4.946,4.9403,4.9405,4.9407,4.9408,4.9561,4.9564,0,0,0,0,0,0,4.9429,4.9428,4.9465,4.9465,4.9424,4.9423,4.9422,4.9433,4.9423,4.9419,4.9409,4.9404,4.9409,4.941,4.9412,4.9488,4.9406,4.9408,4.9409,4.9558,4.9562,4.9565,0,0,0,0,0,0,4.9428,4.9433,4.9465,4.9446,4.9449,4.9426,4.944,4.9435,4.9441,4.9422,4.9417,4.942,4.9407,4.9409,4.9449,4.9487,4.9409,4.9411,4.9555,4.9559,4.9563,4.9639,0,0,0,0,0,0,4.9427,4.9433,4.9457,4.9447,4.945,4.9503,4.9442,4.9436,4.9445,4.9438,4.9431,4.9427,4.9405,4.9446,4.9452,4.9489,4.9413,4.9552,4.9557,4.9562,4.9633,4.9645,4.9656,0,0,0,0,0,4.9425,4.9478,4.9459,4.9463,4.9479,4.9505,4.9507,4.948,4.9448,4.9472,4.946,4.9427,4.9482,4.9451,4.9456,4.9495,4.9549,4.9555,4.9561,4.9628,4.9643,4.9655,0,0,0,0,0,0,4.9492,4.9476,4.9454,4.9505,4.9507,4.9494,4.9523,4.9496,4.9507,4.9501,4.9467,4.9466,4.9512,4.9507,4.9473,4.9557,4.951,4.9517,4.9559,4.9572,4.9584,4.9584,4.9414,0,0,0,0,0,4.9513,4.9535,4.9519,4.9566,4.9568,4.9546,4.9556,4.9536,4.9536,4.9536,4.9527,4.9529,4.9547,4.9559,4.9574,4.9632,4.963,4.9661,4.9672,4.9681,4.9689,4.9721,4.9735,4.9585,4.9585,4.9585,0,0,4.9556,4.955,4.9566,4.9579,4.9578,4.9603,4.9547,4.9574,4.9592,4.954,4.9578,4.9572,4.9572,4.9621,4.9643,4.9619,4.973,4.9689,4.9697,4.9699,4.9728,4.9743,4.9755,4.9589,4.9588,4.9587,0,0,4.9647,4.9644,4.9683,4.9684,4.9684,4.9669,4.9678,4.967,4.9664,4.9701,4.9664,4.9684,4.9715,4.9717,4.9722,4.9816,4.9786,4.9821,4.9881,4.9912,4.9924,4.9934,4.9969,4.9982,4.9828,4.9829,4.9829,0,4.9701,4.9736,4.9707,4.9737,4.9745,4.97,4.974,4.9742,4.9746,4.9753,4.9726,4.9765,4.9761,4.9812,4.9835,4.984,4.985,4.9822,4.9924,4.9935,4.9944,4.9977,4.999,4.9833,4.9832,4.9832,4.9832,0,4.9802,4.9827,4.9859,4.9866,4.9876,4.9912,4.9888,4.9903,4.9882,4.987,4.991,4.9904,4.9918,4.9928,4.9908,4.9977,4.9962,4.993,4.9882,4.9963,4.9994,5.0006,4.9839,4.9838,4.9836,4.9835,0,0,4.9935,4.9927,4.9939,4.9942,4.9939,4.9958,4.9991,5.0006,5.002,5.0024,5.0053,5.008,5.0051,5.0057,5.0036,5.0064,5.0141,5.0029,5.0028,5.0051,5.0218,5.0243,5.0258,5.0121,5.0123,5.0125,5.0219,0,5.0025,5.0082,5.0057,5.0117,5.0141,5.0099,5.0128,5.013,5.012,5.0139,5.0127,5.0148,5.0108,5.0112,5.0137,5.0126,5.0174,5.0119,5.0148,5.0149,5.015,5.0274,5.03,5.0389,5.023,5.0232,5.0234,0,5.0137,5.0148,5.021,5.0205,5.0214,5.0241,5.0253,5.0271,5.0272,5.0263,5.027,5.0244,5.0277,5.0229,5.0275,5.0238,5.0248,5.0245,5.0247,5.025,5.0197,5.0281,5.0416,5.043,5.0252,5.025,5.0249,0,5.023,5.026,5.0302,5.0305,5.03,5.032,5.0318,5.0317,5.0328,5.0338,5.0345,5.0359,5.0367,5.0378,5.0357,5.0323,5.0406,5.0356,5.0401,5.0401,5.0421,5.042,5.0561,5.0425,5.0425,5.0425,5.0424,0,5.0333,5.0374,5.0344,5.037,5.0414,5.0385,5.043,5.0424,5.0424,5.0448,5.0412,5.0435,5.0404,5.0425,5.0408,5.045,5.0453,5.0447,5.0443,5.0451,5.0453,5.0459,5.0453,5.0428,5.0427,5.0427,5.0426,0,5.0445,5.0427,5.047,5.0461,5.046,5.0493,5.0486,5.051,5.0497,5.0529,5.0535,5.0516,5.0538,5.0517,5.0539,5.0527,5.0583,5.0569,5.0583,5.058,5.0626,5.0623,5.0777,5.0797,5.0647,5.0649,5.065,0,5.0513,5.0543,5.0539,5.0553,5.0554,5.0577,5.0588,5.0561,5.0574,5.0579,5.0603,5.0622,5.0637,5.0675,5.0663,5.068,5.0666,5.0719,5.0669,5.0677,5.0669,5.0669,5.0672,5.073,5.0732,5.0733,5.0734,0,5.0637,5.0626,5.0644,5.0659,5.0674,5.0684,5.0692,5.0705,5.0678,5.0694,5.0718,5.0729,5.0752,5.0772,5.0785,5.0783,5.0756,5.075,5.0762,5.0772,5.078,5.0778,5.0613,5.0747,5.0746,5.0745,5.0744,5.0744,5.073,5.0756,5.0757,5.0778,5.0781,5.079,5.0812,5.0803,5.0822,5.0839,5.0822,5.0851,5.0852,5.0867,5.0869,5.0891,5.0869,5.0885,5.089,5.0895,5.0902,5.0776,5.0893,5.0893,5.0892,5.0892,5.0892,0,5.0853,5.0852,5.0872,5.0884,5.0902,5.0873,5.0881,5.0897,5.0923,5.0927,5.0942,5.097,5.099,5.098,5.0998,5.1018,5.1005,5.1023,5.1022,5.1023,5.092,5.0909,5.1033,5.1033,5.1033,5.1033,5.1033,5.1033,5.0919,5.0962,5.0952,5.0997,5.0995,5.1023,5.103,5.1038,5.1041,5.1074,5.1091,5.1084,5.1083,5.11,5.1118,5.1114,5.1123,5.1147,5.1139,5.1044,5.103,5.1017,5.1006,5.1148,5.1149,5.124,5.1241,5.1241]}]]